Location: Axtheid
(49.6213°N, 11.8205°E)
Time: 13:35:20
(UTC+00:00)

Envisat - Pass Details

Date: 24 January 2021
Orbit: 764 x 766 km, 98.1° (Epoch: 25 February)

Event Time Altitude Azimuth Distance (km) Brightness Sun altitude
Rises 16:28:26 0° 181° (S) 3,221 6.6 -5.7°
Reaches altitude 10° 16:30:49 10° 187° (S) 2,299 5.9 -6.0°
Maximum altitude 16:35:42 48° 261° (W) 1,003 4.2 -6.8°
Drops below altitude 10° 16:40:38 10° 336° (NNW) 2,315 5.5 -7.5°
Sets 16:43:02 0° 342° (NNW) 3,246 6.2 -7.9°
